Погода Петропавловск-Каз.

Поиск расширенной информации на нашем сайте:

Полезная информация:

Новости сайта



02.01.2020
Опубликован Долгосрочный прогноз погоды по городам России и ближнего зарубежья на январь 2020 года.
Карты: Прогноз на январь и февраль 2020 года, Сравнение прогнозируемой аномалии приземной температуры воздуха на январь 2020 года по разным моделям.




Погода Петропавловск-Каз. - сегодня

Время (UTC), дата Ветер
(°,м/с) 
Видим.   Явления Облачность Т
(°С)
Тd
(°С)
f(%) Тe
(°С)
Pmin
(гПа)
dP
(гПа)
Po
(мм)
O2
(г/м3)
Тmin Tmax R s Состояние
почвы
06 22.10.21 220 (ЮЗ) 8-15{16}  4000 м  слаб. ливневой снег  10/10 600 м кучево-дожд. 
[Cb cap]
+2.4 -0.9 79 -1  1008.3  -0.6  747  298  -1         
09 22.10.21 230 (ЮЗ) 7-15{16}  4000 м  слаб. ливневой дождь  10/10 600 м кучево-дожд. 
[Cb cap]
+2 -0.2 85 -1  1007.6  -0.7  746  299           
12 22.10.21 230 (ЮЗ) 7-15{15}  10 км  {ливн. осадки}  10/10 600 м кучево-дожд. 
[Cb cap]
+2.8 +0.1 82 -1  1008.4  0.8  747  298           
15 22.10.21 220 (ЮЗ) 6{15}  н/о    9/9 1000 м 
[Sc]
+4 +0.3 77 +1  1009.1  0.8  748  297    +4       
18 22.10.21 220 (ЮЗ) 7-15{17}  н/о  в посл. час ливневой дождь  10/10 600 м кучево-дожд. 
[Cb cap]
+5.1 +2.4 83 +2  1008.8  -0.2  747  295    +4     
21 22.10.21 230 (ЮЗ) 6-15{16}  н/о  слаб. ливневой дождь  10/10 600 м кучево-дожд. 
[Cb cap]
+5.9 +3.8 86 +4  1007.5  -1.3  746  294           
00 23.10.21 230 (ЮЗ) 8-17{18}  н/о  {ливн. осадки}  10/10 600 м кучево-дожд. 
[Cb cap]
+7.4 +4.7 83 +5  1005.4  -2  745  291           
03 23.10.21 230 (ЮЗ) 6-15{17}  10 км    10/10 1000 м 
[Sc]
+7.5 +4 78 +5  1005.7  0.3  745  292      0.4     
06 23.10.21 230 (ЮЗ) 7-15{17}  10 км    10/10 1000 м 
[Sc]
+9.9 +5.5 74 +8  1007.6  747  289  +4    0.4     
09 23.10.21 250 (З) 7-15{17}  10 км    8/3 1000 м средняя 
[Sc|Ac trans]
+11.1 +5.7 69 +9  1008.4  0.8  747  288           
12 23.10.21 230 (ЮЗ) 6-15{16}  10 км    3/1 1000 м средняя 
[Sc|Ac trans]
+12.1 +6.2 67 +11  1009.5  1.1  748  288           
15 23.10.21 200 (Ю) 4{15}  н/о    ясно 
+9.1 +5.6 79 +8  1011.2  1.6  749  291    +13.7       
18 23.10.21 180 (Ю) н/о    6/0 средняя 
[Ac trans]
+7.4 +4.4 81 +6  1013  1.7  751  294    +13.7       
21 23.10.21 230 (ЮЗ) н/о  дымка  4/0 верхняя 
[Ci fib]
+6.1 +4 86 +5  1014.7  1.6  752  296           
00 24.10.21 200 (Ю) н/о  дымка  10/0 средняя 
[Ac und]
+6.1 +3.7 85 +5  1015.7  752  296           
06 24.10.21 260 (З) 10 км    8/0 верхняя 
[Cs]
+10.1 +6 76 +9  1016.9  754  292  +5.4         
09 24.10.21 230 (ЮЗ) 10 км    8/1 1000 м верхняя 
[Sc|Ci fib]
+13 +3.6 53 +12  1016.4  -0.4  753  289           
12 24.10.21 180 (Ю) 10 км    10/3 1000 м средняя, верхняя 
[Sc|Ac trans|Ci fib]
+11.3 +6.4 72 +12  1015.2  -1.3  752  290           
15 24.10.21 200 (Ю) н/о    10/9 1000 м средняя 
[Sc|Ac trans]
+12 +5.6 65 +11  1012.9  -2.1  751  289    +13.2       
18 24.10.21 200 (Ю) 6-15{19}  н/о    10/4 1000 м верхняя 
[Sc|Cs]
+11 -3.4 36 +10  1011.1  -2  749  291    +13.2       
21 24.10.21 220 (ЮЗ) 7-16{20}  н/о    10/10 1000 м 
[Sc]
+10.6 -2.5 40 +9  1010.2  -0.9  749  291           
00 25.10.21 230 (ЮЗ) 4{17}  н/о    10/8 1000 м верхняя 
[Sc|Ci fib]
+8.6 +3 68 +7  1011  0.8  749  292           
06 25.10.21 270 (З) 10 км    9/3 1000 м верхняя 
[Sc|Ci fib]
+9 +1.5 59 +8  1015  1.7  752  293  +5.4         
09 25.10.21 230 (ЮЗ) 10 км    9/9 1000 м 
[Sc]
+10.1 -1.5 44 +10  1014.4  -0.7  752  292           
12 25.10.21 180 (Ю) 10 км    10/10 1000 м 
[Sc]
+8.8 +1.5 60 +9  1013.6  -0.8  751  293           
Время (UTC), дата Ветер
(°,м/с) 
Видим.   Явления Облачность Т
(°С)
Тd
(°С)
f(%) Тe
(°С)
Pmin
(гПа)
dP
(гПа)
Po
(мм)
O2
(г/м3)
Тmin Tmax R s Состояние
почвы

Для получения пояснительной информации подведите курсор к названию столбца.

ПОГОДА Петропавловск-Каз. - архив

Всё, что Вы хотите узнать о погоде Петропавловск-Каз. - удобно и подробно!

Выберите нужную дату (начиная с 1 января 2019* года) и нажмите кнопку "Найти".
Будут отображены архивные сводки погоды по пункту Петропавловск-Каз., начиная с указанной даты.


Отображать данные в формате CSV (для использования в таблицах Excel)


Внимание! Наш архив погоды предназначен исключительно для личного некоммерческого использования в познавательных целях. Если Вам необходимы официальные справки о состоянии погоды (для производственных, юридических, коммерческих и т.п. целей), обращайтесь в органы Росгидромета.

*Примечание: данная дата относится к архиву по метеостанциям СССР (Россия, СНГ, Балтия).
Архив по метеостанциям Зарубежной Европы и Азии (кроме Китая) хранится 10 дней, по другим регионам земного шара (Китай, Африка, Америка, Австралия, Океания) - 1 день.

Петропавловск-Каз. - район местоположения метеостанции


Название, широта, долгота, высота метеостанции:
Петропавловск-Каз. 54.8°ш. 69.2°д. 142 м над ур. моря [Казахстан]

Дополнительная информация

В oтличие oт бoльшинства пoгoдных сайтoв мы публикуем пoдрoбную метеoинфoрмацию в детальнoм прoфессиoнальнoм фoрмате.

Характеристики температуры и влажнoсти вoздуха измеряются на высoте 2 м в тени вдали oт зданий и деревьев.
Скoрoсть ветра измеряется на высoте 10 м (на урoвне рoста челoвека скoрoсть ветра ниже в 1.5-2 раза). Если метеoстанция нахoдится в гoрoде или в лесу, тo скoрoсть ветра занижена на 2-4 м/с пo сравнению с oткрытым местoм. Скoрoсть ветра над акватoриями крупных рек и oзёр, а также на вершинах хoлмoв на 2-5 м/с выше, чем в oбычных услoвиях.
Атмoсфернoе давление в разных тoчках местнoсти мoжет значительнo oтличаться oт давления на метеoстанции, в зависимoсти oт услoвий рельефа (при пoдъёме на 10 м давление пoнижается примернo на 1 мм рт.ст.).